STARLINK-3949 (52555 NORAD) Tracking and Keplerian Element Data

This shows tracking and keplerian element data for the satellite.

Feedback or suggestion? Click here.




ElementValue
Catalog52555
NameSTARLINK-3949
Epoch Orbit130
Epoch Day167.08334491
Epoch Year2022
RAAN130.4514
Inclination53.2172
Eccentricity0.000135
Argument of Perigee71.1534
Mean Anonmoly21.018
Mean Motion15.49960359
Decay Rate-0.00106296
L11 52555U 22051Y 22167.08334491 -.00106296 00000+0 -18853-2 0 9994
L22 52555 53.2172 130.4514 0001350 71.1534 21.0180 15.49960359 1309

Live tracking and technical data element details for STARLINK-3949 (NORAD 52555). STARLINK-3949 can be tracked NOW for your location showing map with azimuth and elevation plus other details from your city location.

Track the satellite on the map from your city or location and see movement details for azimuth, elevation, latitude, longitude, range, height, and movement on the map or in text.







IsCatalogInMostPopularTable: catalog: 52555, numindb: 3
Update: records affected: 1



GetName: 52555 STARLINK-3949

Hit Count: updated at: Mon, 27 Jun 2022 05:03:03 GMT